• In Romania
  • List of Countries
  • For 7 days
  • Water Temperature
  • Satellite Maps
  • Weather Map
  • Weather Widgets
  • user-avatar
    Login

    Hourly Weather Canillo

    Today, 20 February, Monday

    Time Temperature Precipitation Wind Pressure Humidity
    00:00 -4°C° 0 mm 2 mps 621 mmHg 83%
    01:00 -4°C° 0 mm 2 mps 621 mmHg 85%
    02:00 -4°C° 0 mm 2 mps 620 mmHg 87%
    03:00 -4°C° 0 mm 2 mps 620 mmHg 88%
    04:00 -5°C° 0 mm 2 mps 620 mmHg 88%
    05:00 -5°C° 0 mm 2 mps 620 mmHg 88%
    06:00 -5°C° 0 mm 2 mps 620 mmHg 88%
    07:00 -3°C° 0 mm 2 mps 621 mmHg 79%
    08:00 -1°C° 0 mm 2 mps 622 mmHg 71%
    09:00 +2°C° 0 mm 2 mps 623 mmHg 63%
    10:00 +3°C° 0 mm 2 mps 623 mmHg 59%
    11:00 +4°C° 0 mm 2 mps 624 mmHg 54%
    12:00 +6°C° 0 mm 2 mps 624 mmHg 50%
    13:00 +6°C° 0 mm 2 mps 624 mmHg 52%
    14:00 +6°C° 0 mm 2 mps 623 mmHg 53%
    15:00 +6°C° 0 mm 2 mps 623 mmHg 55%
    16:00 +3°C° 0 mm 2 mps 622 mmHg 66%
    17:00 +1°C° 0 mm 2 mps 621 mmHg 77%
    18:00 -2°C° 0 mm 2 mps 620 mmHg 87%
    19:00 -3°C° 0 mm 2 mps 620 mmHg 87%
    20:00 -3°C° 0 mm 2 mps 621 mmHg 86%
    21:00 -3°C° 0 mm 2 mps 621 mmHg 86%
    22:00 -3°C° 0 mm 2 mps 621 mmHg 85%
    23:00 -3°C° 0 mm 2 mps 621 mmHg 85%

    Tomorrow, 21 February, Tuesday

    Time Temperature Precipitation Wind Pressure Humidity
    00:00 -3°C° 0 mm 2 mps 621 mmHg 85%
    01:00 -3°C° 0 mm 2 mps 621 mmHg 85%
    02:00 -3°C° 0 mm 2 mps 621 mmHg 86%
    03:00 -3°C° 0 mm 2 mps 620 mmHg 86%
    04:00 -3°C° 0 mm 2 mps 620 mmHg 88%
    05:00 -3°C° 0 mm 2 mps 620 mmHg 89%
    06:00 -3°C° 0 mm 2 mps 620 mmHg 90%
    07:00 +1°C° 0 mm 1 mps 621 mmHg 85%
    08:00 +3°C° 0 mm 1 mps 622 mmHg 79%
    09:00 +5°C° 0 mm 1 mps 623 mmHg 73%
    10:00 +6°C° 0 mm 1 mps 623 mmHg 69%
    11:00 +7°C° 0 mm 1 mps 624 mmHg 66%
    12:00 +8°C° 0 mm 1 mps 624 mmHg 62%
    13:00 +7°C° 0 mm 2 mps 623 mmHg 63%
    14:00 +7°C° 0 mm 2 mps 623 mmHg 64%
    15:00 +7°C° 0 mm 2 mps 623 mmHg 66%
    16:00 +6°C° 0 mm 1 mps 622 mmHg 75%
    17:00 +3°C° 0 mm 1 mps 620 mmHg 84%
    18:00 +1°C° 0 mm 1 mps 619 mmHg 93%
    19:00 +1°C° 0 mm 1 mps 619 mmHg 93%
    20:00 0°C° 0 mm 1 mps 619 mmHg 93%
    21:00 0°C° 0 mm 1 mps 619 mmHg 93%
    22:00 0°C° 0 mm 1 mps 619 mmHg 92%
    23:00 -1°C° 0 mm 1 mps 619 mmHg 91%

    Day after tomorrow, 22 February, Wednesday

    Time Temperature Precipitation Wind Pressure Humidity
    00:00 -1°C° 0 mm 1 mps 619 mmHg 90%
    01:00 -1°C° 0 mm 1 mps 618 mmHg 89%
    02:00 -1°C° 0 mm 1 mps 618 mmHg 88%
    03:00 -2°C° 0 mm 1 mps 618 mmHg 87%
    04:00 -2°C° 0 mm 1 mps 618 mmHg 86%
    05:00 -3°C° 0 mm 0 mps 617 mmHg 86%
    06:00 -3°C° 0 mm 0 mps 617 mmHg 86%
    07:00 0°C° 0 mm 0 mps 619 mmHg 78%
    08:00 +2°C° 0 mm 0 mps 620 mmHg 70%
    09:00 +5°C° 0 mm 0 mps 621 mmHg 61%
    10:00 +7°C° 0 mm 1 mps 622 mmHg 58%
    11:00 +8°C° 0 mm 1 mps 622 mmHg 55%
    12:00 +9°C° 0 mm 1 mps 622 mmHg 52%
    13:00 +9°C° 0 mm 1 mps 622 mmHg 55%
    14:00 +9°C° 0 mm 1 mps 621 mmHg 58%
    15:00 +9°C° 0 mm 1 mps 621 mmHg 61%
    16:00 +6°C° 0 mm 1 mps 620 mmHg 72%
    17:00 +3°C° 0 mm 1 mps 618 mmHg 83%
    18:00 -1°C° 0 mm 0 mps 617 mmHg 94%
    19:00 -1°C° 0 mm 0 mps 617 mmHg 94%
    20:00 -1°C° 0 mm 0 mps 617 mmHg 94%
    21:00 -2°C° 0 mm 0 mps 617 mmHg 94%
    22:00 -2°C° 0 mm 0 mps 617 mmHg 94%
    23:00 -1°C° 0 mm 1 mps 617 mmHg 94%

    23 February, Thursday

    Time Temperature Precipitation Wind Pressure Humidity
    00:00 -1°C° 0 mm 1 mps 617 mmHg 93%
    01:00 -1°C° 0 mm 1 mps 616 mmHg 93%
    02:00 -1°C° 0 mm 1 mps 616 mmHg 93%
    03:00 -1°C° 0 mm 1 mps 616 mmHg 93%
    04:00 -1°C° 0 mm 1 mps 615 mmHg 92%
    05:00 -2°C° 0 mm 1 mps 615 mmHg 91%
    06:00 -2°C° 0 mm 1 mps 615 mmHg 91%
    07:00 0°C° 0 mm 1 mps 616 mmHg 81%
    08:00 +3°C° 0 mm 1 mps 617 mmHg 71%
    09:00 +5°C° 0 mm 1 mps 618 mmHg 61%
    10:00 +7°C° 0 mm 1 mps 619 mmHg 55%
    11:00 +8°C° 0 mm 1 mps 619 mmHg 50%
    12:00 +8°C° 0 mm 2 mps 619 mmHg 45%
    13:00 +8°C° 0 mm 2 mps 618 mmHg 48%
    14:00 +8°C° 0 mm 2 mps 618 mmHg 51%
    15:00 +8°C° 0 mm 2 mps 617 mmHg 54%
    16:00 +5°C° 0 mm 2 mps 616 mmHg 66%
    17:00 +4°C° 0 mm 1 mps 616 mmHg 79%
    18:00 +1°C° 0 mm 1 mps 615 mmHg 91%
    19:00 +1°C° 0 mm 1 mps 615 mmHg 92%
    20:00 -1°C° 0 mm 2 mps 615 mmHg 93%
    21:00 -1°C° 0 mm 2 mps 616 mmHg 94%
    22:00 -1°C° 0 mm 2 mps 616 mmHg 94%
    23:00 -1°C° 0 mm 2 mps 615 mmHg 94%

    24 February, Friday

    Time Temperature Precipitation Wind Pressure Humidity
    00:00 -2°C° 0 mm 2 mps 615 mmHg 94%
    01:00 -2°C° 0 mm 2 mps 615 mmHg 93%
    02:00 -2°C° 0 mm 2 mps 614 mmHg 92%
    03:00 -2°C° 0 mm 2 mps 614 mmHg 92%
    04:00 -2°C° 0 mm 2 mps 614 mmHg 89%
    05:00 -3°C° 0 mm 2 mps 614 mmHg 87%
    06:00 -4°C° 0 mm 3 mps 614 mmHg 85%
    07:00 -1°C° 0.1 mm 3 mps 615 mmHg 82%
    08:00 0°C° 0.1 mm 3 mps 616 mmHg 78%
    09:00 +1°C° 0.1 mm 4 mps 617 mmHg 75%
    10:00 +1°C° 0.1 mm 4 mps 617 mmHg 72%
    11:00 +1°C° 0.1 mm 4 mps 617 mmHg 69%
    12:00 +1°C° 0.1 mm 4 mps 617 mmHg 65%
    13:00 +1°C° 0 mm 4 mps 617 mmHg 64%
    14:00 +1°C° 0 mm 4 mps 617 mmHg 63%
    15:00 +1°C° 0 mm 4 mps 617 mmHg 63%
    16:00 0°C° 0 mm 4 mps 617 mmHg 69%
    17:00 -2°C° 0 mm 4 mps 617 mmHg 76%
    18:00 -3°C° 0 mm 4 mps 617 mmHg 82%
    19:00 -2°C° 0 mm 3 mps 618 mmHg 82%
    20:00 -4°C° 0 mm 3 mps 618 mmHg 83%
    21:00 -4°C° 0 mm 3 mps 619 mmHg 83%
    22:00 -4°C° 0 mm 3 mps 619 mmHg 82%
    23:00 -5°C° 0 mm 3 mps 619 mmHg 80%

    25 February, Saturday

    Time Temperature Precipitation Wind Pressure Humidity
    00:00 -5°C° 0 mm 3 mps 619 mmHg 79%
    01:00 -5°C° 0 mm 3 mps 619 mmHg 78%
    02:00 -5°C° 0 mm 3 mps 619 mmHg 78%
    03:00 -5°C° 0 mm 2 mps 619 mmHg 77%
    04:00 -5°C° 0 mm 2 mps 620 mmHg 77%
    05:00 -5°C° 0 mm 2 mps 620 mmHg 76%
    06:00 -5°C° 0 mm 2 mps 620 mmHg 75%
    07:00 -2°C° 0 mm 2 mps 621 mmHg 67%
    08:00 +2°C° 0 mm 1 mps 622 mmHg 59%
    09:00 +4°C° 0 mm 1 mps 624 mmHg 51%
    10:00 +6°C° 0 mm 1 mps 624 mmHg 47%
    11:00 +8°C° 0 mm 1 mps 625 mmHg 44%
    12:00 +9°C° 0 mm 1 mps 625 mmHg 41%
    13:00 +9°C° 0 mm 1 mps 625 mmHg 43%
    14:00 +9°C° 0 mm 1 mps 625 mmHg 45%
    15:00 +9°C° 0 mm 1 mps 625 mmHg 48%
    16:00 +6°C° 0 mm 1 mps 623 mmHg 60%
    17:00 +3°C° 0 mm 1 mps 622 mmHg 72%
    18:00 0°C° 0 mm 1 mps 621 mmHg 85%
    19:00 0°C° 0 mm 1 mps 621 mmHg 85%
    20:00 0°C° 0 mm 1 mps 621 mmHg 85%
    21:00 -1°C° 0 mm 0 mps 621 mmHg 85%
    22:00 -1°C° 0 mm 0 mps 621 mmHg 85%
    23:00 -1°C° 0 mm 0 mps 621 mmHg 85%
    Show more